TimeEDT,TemperatureF,Dew PointF,Humidity,Sea Level PressureIn,VisibilityMPH,Wind Direction,Wind SpeedMPH,Gust SpeedMPH,PrecipitationIn,Events,Conditions,WindDirDegrees,DateUTC
12:53 AM,50.0,48.9,96,29.98,10.0,SSE,9.2,17.3,0.06,Rain,Heavy Rain,160,2012-10-05 04:53:00
1:53 AM,50.0,48.9,96,29.98,10.0,SSE,8.1,-,0.16,Rain,Light Rain,160,2012-10-05 05:53:00
2:53 AM,50.0,48.9,96,29.95,10.0,SSE,9.2,-,0.00,,Overcast,160,2012-10-05 06:53:00
3:53 AM,50.0,48.9,96,29.94,10.0,SSE,4.6,-,N/A,,Overcast,160,2012-10-05 07:53:00
4:53 AM,50.0,48.9,96,29.93,10.0,SSE,6.9,-,N/A,,Overcast,150,2012-10-05 08:53:00
5:53 AM,50.0,48.9,96,29.92,10.0,SSE,6.9,-,N/A,,Overcast,160,2012-10-05 09:53:00
6:53 AM,50.0,48.9,96,29.91,10.0,SSE,5.8,-,N/A,,Overcast,160,2012-10-05 10:53:00
7:53 AM,50.0,50.0,100,29.91,10.0,South,6.9,-,N/A,,Overcast,170,2012-10-05 11:53:00
8:53 AM,50.0,50.0,100,29.90,10.0,SSE,8.1,-,N/A,,Overcast,150,2012-10-05 12:53:00
9:53 AM,51.1,51.1,100,29.90,10.0,South,4.6,-,N/A,,Overcast,180,2012-10-05 13:53:00
10:53 AM,52.0,52.0,100,29.88,10.0,SSE,5.8,-,N/A,,Overcast,160,2012-10-05 14:53:00
11:53 AM,53.6,51.8,94,29.87,10.0,SSE,5.8,-,N/A,,Overcast,160,2012-10-05 15:53:00
12:53 PM,53.6,53.6,100,29.87,10.0,South,8.1,-,N/A,,Overcast,180,2012-10-05 16:53:00
1:53 PM,55.9,55.0,97,29.86,10.0,SSE,4.6,-,N/A,,Overcast,160,2012-10-05 17:53:00
2:37 PM,57.2,55.4,94,29.85,10.0,South,5.8,-,N/A,,Overcast,190,2012-10-05 18:37:00
2:53 PM,57.9,55.0,90,29.84,10.0,SSE,4.6,-,N/A,,Overcast,160,2012-10-05 18:53:00
3:10 PM,59.0,55.4,88,29.83,10.0,SE,5.8,-,N/A,,Overcast,130,2012-10-05 19:10:00
3:13 PM,59.0,55.4,88,29.83,10.0,ESE,6.9,-,N/A,,Overcast,120,2012-10-05 19:13:00
3:23 PM,59.0,55.4,88,29.83,10.0,SSE,6.9,-,N/A,,Mostly Cloudy,150,2012-10-05 19:23:00
3:32 PM,59.0,55.4,88,29.83,10.0,SE,8.1,-,N/A,,Mostly Cloudy,140,2012-10-05 19:32:00
3:53 PM,60.1,55.9,86,29.82,10.0,SE,10.4,-,N/A,,Mostly Cloudy,140,2012-10-05 19:53:00
4:06 PM,60.8,55.4,82,29.84,10.0,South,6.9,-,N/A,,Mostly Cloudy,170,2012-10-05 20:06:00
4:15 PM,60.8,55.4,82,29.83,10.0,SSE,6.9,-,N/A,,Scattered Clouds,160,2012-10-05 20:15:00
4:53 PM,61.0,57.0,87,29.83,10.0,South,3.5,-,N/A,,Overcast,180,2012-10-05 20:53:00
5:53 PM,59.0,55.9,90,29.83,10.0,South,4.6,-,N/A,,Overcast,170,2012-10-05 21:53:00
6:53 PM,57.9,57.0,97,29.83,10.0,SE,5.8,-,N/A,,Overcast,130,2012-10-05 22:53:00
7:13 PM,57.2,57.2,100,29.82,10.0,SE,8.1,-,N/A,,Overcast,140,2012-10-05 23:13:00
7:53 PM,57.9,55.9,93,29.82,10.0,SE,6.9,-,N/A,,Overcast,140,2012-10-05 23:53:00
8:15 PM,57.2,55.4,94,29.81,10.0,SE,9.2,-,N/A,,Overcast,140,2012-10-06 00:15:00
8:53 PM,57.9,55.9,93,29.81,10.0,SSE,6.9,-,N/A,,Overcast,160,2012-10-06 00:53:00
9:53 PM,57.9,55.9,93,29.81,10.0,South,8.1,-,N/A,,Overcast,170,2012-10-06 01:53:00
10:01 PM,57.2,55.4,94,29.81,10.0,South,6.9,-,N/A,,Overcast,170,2012-10-06 02:01:00
10:19 PM,57.2,55.4,94,29.81,10.0,South,4.6,-,N/A,,Overcast,170,2012-10-06 02:19:00
10:26 PM,57.2,55.4,94,29.81,10.0,Calm,Calm,-,N/A,,Overcast,0,2012-10-06 02:26:00
10:37 PM,57.2,55.4,94,29.81,10.0,South,5.8,-,N/A,,Overcast,170,2012-10-06 02:37:00
10:53 PM,57.0,55.9,96,29.81,10.0,South,6.9,-,N/A,,Overcast,180,2012-10-06 02:53:00
11:53 PM,57.0,55.9,96,29.80,10.0,South,3.5,-,N/A,,Overcast,190,2012-10-06 03:53:00